Regional Weather Roundup
Issued by NWS Green Bay, WI

Home | Current Version | Previous Version | Graphics & Text | Print | Product List | Glossary Off
Versions: 1 2 3 4 5 6 7 8 9 10 11 12 13 14 15 16 17 18 19 20 21 22 23 24 25 26 27 28 29 30 31 32 33 34 35 36 37 38 39 40 41 42 43 44 45 46 47 48 49 50

000
ASUS43 KGRB 111310
RWRGRB

NORTH-CENTRAL AND NORTHEAST WISCONSIN REGIONAL WEATHER ROUNDUP
NATIONAL WEATHER SERVICE GREEN BAY WI
800 AM CDT FRI JUL 11 2014

WIZ005-009-010>012-018-019-111400-
NORTH CENTRAL WISCONSIN

CITY           SKY/WX    TMP DP  RH WIND       PRES   REMARKS
IRONWOOD       NOT AVBL
MANITOWISH WTR CLOUDY    64  60  88 SW9       30.10F
ARBOR VITAE    CLOUDY    64  60  84 SW7       30.11F
EAGLE RIVER    CLOUDY    64  59  82 SW7       30.11F
LAND O LAKES   CLOUDY    64  60  88 S6        30.11F
RHINELANDER    CLOUDY    65  58  78 SW9       30.13F
PHILLIPS       LGT RAIN  63  60  91 S5        30.10F
ANTIGO         PTSUNNY   63  60  90 S7        30.15F
TOMAHAWK       CLOUDY    63  59  86 CALM      30.13F
MERRILL        CLOUDY    66  60  79 S6        30.12F
$$

WIZ013-073-111400-
NORTHEAST WISCONSIN

CITY           SKY/WX    TMP DP  RH WIND       PRES   REMARKS
IRON MOUNTAIN  PTSUNNY   64  57  78 SE5       30.11F
MARINETTE      PTSUNNY   66  55  68 SW7       30.14S
OCONTO         MOSUNNY   67  58  72 SW5       30.14S
$$

WIZ017-030-035>037-045-111400-
CENTRAL WISCONSIN

CITY           SKY/WX    TMP DP  RH WIND       PRES   REMARKS
MEDFORD        CLOUDY    63  60  90 S6        30.12F
WAUSAU         CLOUDY    68  60  75 SW6       30.12F
MOSINEE        SUNNY     66  63  88 S9        30.15S
MARSHFIELD     CLOUDY    65  61  87 S7        30.12F
WISC RAPIDS    PTSUNNY   68  60  75 S6        30.15S
STEVENS POINT  PTSUNNY   65  58  78 S9        30.15S
WAUPACA        MOSUNNY   68  61  78 S6        30.16S
SHAWANO        MOSUNNY   68  59  74 SW3       30.15F
CLINTONVILLE   MOSUNNY   68  59  73 SW9       30.15S
$$

WIZ038-039-048-051-111400-
FOX VALLEY

CITY           SKY/WX    TMP DP  RH WIND       PRES   REMARKS
NWS GREEN BAY  MOSUNNY   68  59  73 S5        30.16S
APPLETON       MOSUNNY   66  55  68 SW8       30.17R
OSHKOSH        SUNNY     67  58  72 S9        30.16S
FOND DU LAC    SUNNY     68  56  65 SW9       30.18R
$$

WIZ022-050-052-111400-
EAST CENTRAL WISCONSIN

CITY           SKY/WX    TMP DP  RH WIND       PRES   REMARKS
STURGEON BAY   MOSUNNY   63  52  67 S10       30.17R
MANITOWOC      PTSUNNY   64  53  67 S5        30.19R
SHEBOYGAN      SUNNY     64  53  67 SW7       30.19R
$$

LMZ563-521-522-541>543-111400-
LAKESHORE

STATION/POSITION TIME  TEMP    WIND        PRES    VSBY  WAVE
                       AIR SEA DIR/SP/G                  HT/PER
                 (UTC) (F)     (DEG/KT/KT) (MB)    (MI)  (FT/S)
SHEBOYGAN LKSHOR 1300   63     180/ 12/ 12 1022.5R
KEWAUNEE LKSHORE 1300   54     180/ 12/ 14 1022.3R
TWO RIVERS CG    1200   55                   N/A       6   1
NORTHPORT PIER   1300   62     160/  7/ 11 1021.0S
N MID LAKE BUOY  1300   57 54  190/ 14/ 17 1021.1R         2/ 4
STURGEON BAY CG  1200   54 54  190/  8     1021.6      6   1
MENOMINEE LKSHOR 1300   67     190/  8/ 11 1021.3F
$$



USA.gov is the U.S. government's official web portal to all federal, state and local government web resources and services.